| time (UTC) | temp F | wind direction | speed knots | gust knots | rain 1hr in | rain 24hr in | rain mn in | humidity % | barometer mb |
| 20260502151603 | 43 | 320 | 0.9 | 3.5 | 0.00 | 0.20 | 0.20 | 84 | 1010.9 |
| 20260502123056 | 44 | 0 | 0.0 | 0.0 | 0.00 | 0.20 | 0.20 | 92 | 1011.0 |
| 20260502121558 | 45 | 0 | 0.0 | 0.0 | 0.00 | 0.20 | 0.20 | 93 | 1010.7 |
| 20260502120105 | 44 | 0 | 0.0 | 0.0 | 0.01 | 0.20 | 0.20 | 93 | 1010.8 |
| 20260502114558 | 43 | 0 | 0.0 | 0.9 | 0.03 | 0.20 | 0.20 | 93 | 1010.7 |
| 20260502113056 | 42 | 0 | 0.0 | 0.0 | 0.03 | 0.20 | 0.20 | 93 | 1010.7 |
| 20260502111606 | 42 | 0 | 0.0 | 0.0 | 0.04 | 0.20 | 0.20 | 93 | 1010.7 |
| 20260502110058 | 42 | 0 | 0.0 | 0.0 | 0.03 | 0.19 | 0.19 | 93 | 1011.0 |
| 20260502104556 | 42 | 0 | 0.0 | 0.0 | 0.07 | 0.17 | 0.17 | 93 | 1010.8 |
| 20260502103109 | 42 | 0 | 0.0 | 0.0 | 0.11 | 0.17 | 0.17 | 93 | 1010.5 |
| 20260502101617 | 42 | 0 | 0.0 | 0.0 | 0.10 | 0.16 | 0.16 | 93 | 1009.8 |
| 20260502070101 | 43 | 0 | 0.0 | 0.0 | 0.00 | 0.01 | 0.01 | 89 | 1010.3 |
| 20260502064601 | 43 | 0 | 0.0 | 0.0 | 0.00 | 0.01 | 0.01 | 89 | 1010.1 |
| 20260502063059 | 43 | 0 | 0.0 | 0.0 | 0.01 | 0.01 | 0.01 | 87 | 1010.6 |
| 20260502061555 | 43 | 0 | 0.0 | 0.0 | 0.01 | 0.01 | 0.01 | 88 | 1010.5 |
| 20260502060055 | 43 | 0 | 0.0 | 0.0 | 0.01 | 0.01 | 0.01 | 89 | 1010.5 |
| 20260502054603 | 43 | 0 | 0.0 | 0.0 | 0.01 | 0.01 | 0.01 | 88 | 1010.2 |
| 20260502053059 | 43 | 0 | 0.0 | 0.0 | 0.00 | 0.00 | 0.00 | 86 | 1010.4 |
| 20260502051556 | 44 | 0 | 0.0 | 0.0 | 0.00 | 0.00 | 0.00 | 83 | 1010.6 |
| 20260502050057 | 45 | 0 | 0.0 | 0.0 | 0.00 | 0.00 | 0.00 | 78 | 1011.1 |
| 20260502044555 | 45 | 0 | 0.0 | 0.0 | 0.00 | 0.00 | 0.00 | 77 | 1010.9 |
| 20260502043107 | 45 | 0 | 0.0 | 0.0 | 0.00 | 0.00 | 0.00 | 76 | 1010.8 |
| 20260502041556 | 46 | 0 | 0.0 | 0.0 | 0.00 | 0.00 | 0.00 | 75 | 1010.5 |
| 20260502040055 | 46 | 0 | 0.0 | 0.0 | 0.00 | 0.00 | 0.00 | 72 | 1010.6 |
| 20260502034556 | 46 | 0 | 0.0 | 0.0 | 0.00 | 0.00 | 0.00 | 70 | 1010.5 |
| 20260502033057 | 46 | 0 | 0.0 | 0.0 | 0.00 | 0.00 | 0.00 | 73 | 1010.7 |
| 20260502031556 | 47 | 0 | 0.0 | 0.0 | 0.00 | 0.00 | 0.00 | 70 | 1010.7 |
| 20260502030059 | 47 | 0 | 0.0 | 0.0 | 0.00 | 0.00 | 0.00 | 67 | 1010.7 |
| 20260502024555 | 48 | 0 | 0.0 | 0.0 | 0.00 | 0.00 | 0.00 | 70 | 1010.7 |
| 20260502023102 | 48 | 0 | 0.0 | 0.0 | 0.00 | 0.00 | 0.00 | 63 | 1010.8 |
| 20260502021557 | 49 | 40 | 0.0 | 0.0 | 0.00 | 0.00 | 0.00 | 60 | 1010.8 |
| 20260502020056 | 49 | 0 | 0.0 | 0.9 | 0.00 | 0.00 | 0.00 | 58 | 1010.9 |
| 20260502014554 | 49 | 0 | 0.0 | 0.0 | 0.00 | 0.00 | 0.00 | 63 | 1010.9 |
| 20260502013059 | 49 | 0 | 0.0 | 0.9 | 0.00 | 0.00 | 0.00 | 59 | 1010.8 |
| 20260502011557 | 50 | 0 | 0.0 | 0.9 | 0.00 | 0.00 | 0.00 | 56 | 1010.7 |
| 20260502010055 | 51 | 0 | 0.0 | 2.6 | 0.00 | 0.00 | 0.00 | 53 | 1010.7 |
| 20260502004609 | 51 | 337 | 0.0 | 0.9 | 0.00 | 0.00 | 0.00 | 52 | 1010.6 |
| 20260502003055 | 51 | 0 | 0.0 | 1.7 | 0.00 | 0.00 | 0.00 | 58 | 1010.3 |
| 20260502001554 | 50 | 0 | 0.0 | 0.0 | 0.00 | 0.00 | 0.00 | 61 | 1010.0 |
| 20260502000108 | 51 | 0 | 0.0 | 0.0 | 0.00 | 0.00 | 0.00 | 61 | 1009.7 |
| 20260501234557 | 52 | 0 | 0.0 | 0.0 | 0.00 | 0.00 | 0.00 | 58 | 1009.6 |
| 20260501233101 | 53 | 0 | 0.0 | 0.0 | 0.00 | 0.00 | 0.00 | 49 | 1009.4 |
| 20260501231555 | 54 | 0 | 0.0 | 0.0 | 0.00 | 0.00 | 0.00 | 48 | 1009.3 |
| 20260501230057 | 54 | 0 | 0.0 | 0.0 | 0.00 | 0.00 | 0.00 | 48 | 1009.2 |
| 20260501224556 | 55 | 0 | 0.0 | 0.9 | 0.00 | 0.00 | 0.00 | 44 | 1009.2 |
| 20260501223105 | 56 | 0 | 0.0 | 1.7 | 0.00 | 0.00 | 0.00 | 41 | 1009.1 |
| 20260501221556 | 56 | 238 | 0.0 | 0.9 | 0.00 | 0.00 | 0.00 | 42 | 1009.0 |
| 20260501220112 | 56 | 233 | 0.9 | 1.7 | 0.00 | 0.00 | 0.00 | 41 | 1008.9 |
| 20260501214555 | 56 | 287 | 0.0 | 3.5 | 0.00 | 0.00 | 0.00 | 40 | 1009.0 |
| 20260501213109 | 56 | 0 | 0.0 | 1.7 | 0.00 | 0.00 | 0.00 | 40 | 1008.9 |
| 20260501211553 | 56 | 257 | 0.9 | 1.7 | 0.00 | 0.00 | 0.00 | 42 | 1009.0 |
| 20260501210058 | 57 | 258 | 0.9 | 3.5 | 0.00 | 0.00 | 0.00 | 40 | 1009.0 |
| 20260501204554 | 57 | 317 | 0.9 | 2.6 | 0.00 | 0.00 | 0.00 | 40 | 1009.0 |
| 20260501203057 | 56 | 233 | 0.9 | 4.3 | 0.00 | 0.00 | 0.00 | 40 | 1008.9 |
| 20260501201558 | 56 | 330 | 0.9 | 3.5 | 0.00 | 0.00 | 0.00 | 40 | 1008.9 |
| 20260501200056 | 56 | 283 | 0.9 | 5.2 | 0.00 | 0.00 | 0.00 | 39 | 1009.0 |
| 20260501194558 | 56 | 333 | 0.9 | 3.5 | 0.00 | 0.00 | 0.00 | 41 | 1008.9 |
| 20260501193055 | 56 | 342 | 0.0 | 5.2 | 0.00 | 0.00 | 0.00 | 40 | 1008.9 |
| 20260501191555 | 56 | 309 | 0.9 | 2.6 | 0.00 | 0.00 | 0.00 | 40 | 1009.1 |
| 20260501190056 | 55 | 326 | 0.9 | 5.2 | 0.00 | 0.00 | 0.00 | 41 | 1009.2 |
| 20260501184555 | 55 | 309 | 0.9 | 2.6 | 0.00 | 0.00 | 0.00 | 41 | 1009.2 |
| 20260501183106 | 55 | 4 | 0.9 | 7.0 | 0.00 | 0.00 | 0.00 | 44 | 1009.7 |
| 20260501181556 | 55 | 238 | 1.7 | 6.1 | 0.00 | 0.00 | 0.00 | 42 | 1009.8 |
| 20260501180100 | 55 | 300 | 1.7 | 6.1 | 0.00 | 0.00 | 0.00 | 41 | 1009.8 |
| 20260501174641 | 55 | 24 | 1.7 | 6.1 | 0.00 | 0.00 | 0.00 | 42 | 1009.9 |
| 20260501173104 | 54 | 271 | 0.9 | 3.5 | 0.00 | 0.00 | 0.00 | 43 | 1009.9 |
| 20260501171557 | 53 | 347 | 1.7 | 6.1 | 0.00 | 0.00 | 0.00 | 45 | 1009.9 |
| 20260501164606 | 55 | 250 | 1.7 | 5.2 | 0.00 | 0.03 | 0.00 | 41 | 1009.8 |
| 20260501163104 | 55 | 262 | 1.7 | 7.0 | 0.00 | 0.03 | 0.00 | 43 | 1009.9 |
| 20260501161557 | 54 | 281 | 0.9 | 6.1 | 0.00 | 0.03 | 0.00 | 44 | 1009.9 |
| 20260501160101 | 53 | 279 | 1.7 | 6.1 | 0.00 | 0.03 | 0.00 | 43 | 1010.0 |
| 20260501154619 | 53 | 13 | 1.7 | 3.5 | 0.00 | 0.03 | 0.00 | 46 | 1010.2 |